Terminal Aerodrome Forecast
Issued by NWS

Home | Current Version | Previous Version | Text Only | Print | Product List | Glossary On
Versions: 1 2 3 4 5 6 7 8 9 10 11 12 13 14 15 16 17 18 19 20 21 22 23 24 25 26 27 28
000
FTUS43 KBIS 281515 AAB
TAFJMS
TAF AMD
KJMS 281515Z 2815/2912 06004KT 4SM BR BKN002 OVC100
     FM281600 06005KT 6SM BR SCT002 BKN100
     FM281800 09004KT P6SM BKN100=

USA.gov is the U.S. government's official web portal to all federal, state and local government web resources and services.